Regional Weather Roundup
Issued by NWS

Home | Current Version | Previous Version | Graphics & Text | Print | Product List | Glossary On
Versions: 1 2 3 4 5 6 7 8 9 10 11 12 13 14 15 16 17 18 19 20 21 22 23 24 25 26 27 28 29 30 31 32 33 34 35 36 37 38 39 40 41 42 43 44 45 46 47 48 49 50
000
ASUS45 KBOU 301707
RWRCO

WEATHER ROUNDUP FOR COLORADO
NATIONAL WEATHER SERVICE DENVER/BOULDER CO
1100 AM MDT WED JUL 30 2014

NOTE: "FAIR" INDICATES FEW OR NO CLOUDS BELOW 12000 FEET WITH NO
SIGNIFICANT WEATHER AND/OR OBSTRUCTIONS TO VISIBILITY.

COZ001>005-013-030-031-301800-
...NORTHWEST COLORADO...

CITY           SKY/WX    TMP DP  RH WIND       PRES   REMARKS
CRAIG          CLOUDY    59  58  96 W8        30.31S
HAYDEN         CLOUDY    61  54  77 CALM      30.33R
MEEKER         CLOUDY    65  53  65 CALM      30.31F
MOUNT WERNER   NOT AVBL
STEAMBOAT SPGS CLOUDY    58  55  88 SE5       30.34S
WALDEN         CLOUDY    54  48  82 NE7       30.42S
$$

COZ006>008-011-301800-
...WEST CENTRAL VALLEYS...

CITY           SKY/WX    TMP DP  RH WIND       PRES   REMARKS
GRAND JUNCTION FAIR      72  57  59 NW5       30.21F
MONTROSE       FAIR      70  55  59 N5        30.27S
EAGLE          PTSUNNY   66  54  63 CALM      30.32F
RIFLE          PTSUNNY   68  55  63 N3        30.25F
DELTA          FAIR      74  54  48 CALM      30.23F
NUCLA          FAIR      72  55  56 NW5       30.30R
$$

COZ017>023-064>068-301800-
...SOUTHWEST COLORADO...

CITY           SKY/WX    TMP DP  RH WIND       PRES   REMARKS
DURANGO        FAIR      74  47  38 VRB5      30.28F
CORTEZ         FAIR      80  49  33 S6        30.24S
PAGOSA SPRINGS FAIR      70  45  40 CALM      30.36F
TELLURIDE      NOT AVBL
WOLF CREEK PAS NOT AVBL
$$

COZ009-010-012-014-032>034-037-058>063-301800-
...CENTRAL COLORADO...

CITY           SKY/WX    TMP DP  RH WIND       PRES   REMARKS
ASPEN          PTSUNNY   64  50  60 N6        30.36F
BUENA VISTA    CLOUDY    64  47  53 S5        30.39S
COPPER MTN     CLOUDY    54  45  71 S6        30.64S
BERTHOUD PASS  FOG       37  36  93 SE12      30.68S VSB<1/4
COTTONWOOD PAS CLOUDY    59  46  63 CALM      30.51S
GUNNISON       FAIR      63  48  59 S5        30.40S
KREMMLING      CLOUDY    61  50  67 E6        30.38S
LEADVILLE      PTSUNNY   56  41  57 W5        30.48F
MONARCH PASS   CLOUDY    50  43  76 E3        30.74R
SALIDA         PTSUNNY   67  55  64 SE10      30.44S
SUNLIGHT       CLOUDY    54  50  87 NW5       30.58R
WILKERSON PASS SNOW      45  43  93 E6        30.63R VSB<1/4
$$

COZ069>075-301800-
...SAN LUIS VALLEY/SANGRE DE CRISTO MOUNTAINS...

CITY           SKY/WX    TMP DP  RH WIND       PRES   REMARKS
ALAMOSA        FAIR      66  52  60 SE5       30.36S
LA VETA PASS   LGT RAIN  50  48  93 E6        30.54R VSB<1/4
SAGUACHE       FAIR      64  52  63 S3        30.39S
$$

COZ035-036-038>040-301800-
...NORTHERN COLORADO FRONT RANGE...

CITY           SKY/WX    TMP DP  RH WIND       PRES   REMARKS
DENVER INTL AP LGT RAIN  60  57  89 NE9       30.34R
DMNS CITY PARK   N/A     59  57  94 NE5G14    30.34R
AURORA         LGT RAIN  60  58  94 NE13      30.35R
FRONT RANGE AP LGT RAIN  63  59  88 NE9       30.35R
ERIE MUNI ARPT LGT RAIN  61  58  90 N7        30.34R
BOULDER MUN AP   N/A    N/A N/A N/A MISG        N/A
CENTENNIAL     LGT RAIN  59  56  89 E7        30.35R FOG
BROOMFIELD     LGT RAIN  57  57 100 N8        30.36R VSB 1
FORT COLLINS   FAIR      61  57  88 N5        30.36R
LONGMONT       RAIN      62  58  88 N5        30.36R
$$

COZ041-046-047-076>085-087-088-301800-
...PIKES PEAK/PALMER DIVIDE AND SOUTHERN FOOTHILLS...

CITY           SKY/WX    TMP DP  RH WIND       PRES   REMARKS
COLO. SPRINGS  LGT RAIN  58  55  90 NE12      30.37R FOG
A. F. ACADEMY  DRIZZLE   59  57  94 W5        30.37S FOG
ELLICOTT       CLOUDY    61  55  81 E13       30.34R
FALCON         CLOUDY    56  55  94 E12       30.40R FOG
FORT CARSON    CLOUDY    61  57  88 VRB6      30.34S
LIMON          CLOUDY    60  56  86 E9        30.33R
MONUMENT HILL  CLOUDY    54  52  94 E7        30.39R
TRINIDAD       CLOUDY    62  57  83 CALM      30.31R
$$

COZ042>045-048>051-090-091-301800-
...NORTHEAST COLORADO...

CITY           SKY/WX    TMP DP  RH WIND       PRES   REMARKS
GREELEY ARPT   NOT AVBL
AKRON          CLOUDY    61  58  90 E8        30.32R
BURLINGTON     CLOUDY    63  56  78 E13       30.29R
WRAY             N/A     64  60  85 CALM      30.29R
STERLING       CLOUDY    68  63  83 S7        30.28S
HOLYOKE        PTSUNNY   70  61  73 CALM      30.28S
FORT MORGAN    CLOUDY    62  59  89 E9        30.32S
$$

COZ086-089-092>099-301800-
...SOUTHEAST COLORADO...

CITY           SKY/WX    TMP DP  RH WIND       PRES   REMARKS
PUEBLO         LGT RAIN  62  60  93 E12       30.28R FOG
LA JUNTA       CLOUDY    65  60  84 NE18      30.25R
LAMAR          CLOUDY    62  59  90 NE14      30.22R
SPRINGFIELD      N/A     61  60  97 NE17      30.21R
$$


USA.gov is the U.S. government's official web portal to all federal, state and local government web resources and services.